AirNav   Everest Fuels
 
 347 users online  

36UT Park City Regional Medical Center Heliport
Park City, Utah, USA

GOING TO PARK CITY?


FAA INFORMATION EFFECTIVE 21 MAY 2020

Location

FAA Identifier: 36UT
Lat/Long: 40-41-16.2200N 111-28-14.2800W
40-41.270333N 111-28.238000W
40.6878389,-111.4706333
(estimated)
Elevation: 6759 ft. / 2060 m (estimated)
From city: 3 miles WSW of PARK CITY, UT
Time zone: UTC -6 (UTC -7 during Standard Time)
Zip code: 84098

Heliport Operations

Heliport use: Private use. Permission required prior to landing
Activation date: 09/2011
Control tower: no
ARTCC: SALT LAKE CITY CENTER
FSS: CEDAR CITY FLIGHT SERVICE STATION
Attendance: UNATNDD
Wind indicator: yes
Segmented circle: no
Lights: SS-SR

Heliport Communications

WX AWOS-3PT at HCR (13 nm S): 124.825 (435-657-0892)

Nearby radio navigation aids

VOR radial/distance  VOR name  Freq  Var
TCHr097/25.2WASATCH VORTAC116.8016E
PVUr007/30.6PROVO VOR/DME108.4015E
FFUr025/32.8FAIRFIELD VORTAC116.6016E
EVWr196/40.0EVANSTON VOR/DME109.6013E

Heliport Services

Runway Information

Helipad H1

Dimensions: 76 x 76 ft. / 23 x 23 m
Surface: concrete
Runway edge lights: PERI
Latitude: 40-41.270333N
Longitude: 111-28.238000W
Elevation: 6759.0 ft.
Traffic pattern: leftleft

Heliport Ownership and Management from official FAA records

Ownership: Privately-owned
Owner: IHC HEALTH SERVICES INC.
250 N 2370 W, STE 2300
SALT LAKE CITY, UT 84116
Phone (801) 321-3362
Manager: KENT JOHNSON
250 N 2370 W, STE 2300
SALT LAKE CITY, UT 84116
Phone (801) 321-3362

Additional Remarks

FOR CD CTC SALT LAKE ARTCC AT 801-320-2568.

Instrument Procedures

There are no published instrument procedures at 36UT.

Some nearby airports with instrument procedures:

KHCR - Heber Valley Airport (13 nm S)
KSLC - Salt Lake City International Airport (24 nm W)
U42 - South Valley Regional Airport (24 nm W)
KPVU - Provo Municipal Airport (30 nm S)
KSPK - Spanish Fork Airport Springville-Woodhouse Field (34 nm S)
 
Loc | Ops | Rwys | IFR | FBO | Links
Com | Nav | Svcs | Stats | Notes
Aerial photo
No photo
 
Airport distance calculator
Flying to Park City Regional Medical Center Heliport? Find the distance to fly.

From to 36UT

Sunrise and sunset
Times for 06-Jun-2020
 Local
(UTC-6)
 Zulu
(UTC)
Morning civil twilight05:2311:23
Sunrise05:5611:56
Sunset20:5402:54
Evening civil twilight21:2703:27

Current date and time
Zulu (UTC)  06-Jun-2020 09:18:22
Local (UTC-6)  06-Jun-2020 03:18:22
 
METAR
KHCR 
13nm S 
060855Z AUTO 20004KT 10SM CLR 19/04 A2986 RMK AO2
KSLC 
23nm W 
060854Z 18016KT 10SM FEW140 BKN180 26/04 A2969 RMK AO2 PK WND 17030/0812 SLP984 T02560039 57010
KU42 
24nm W 
060855Z AUTO 18015G23KT 10SM SCT120 24/07 A2976 RMK AO1 T02360067
TAF
KHCR 
13nm S 
060743Z 0608/0706 22007KT P6SM SCT080 BKN150 FM061700 20012G20KT P6SM VCSH SCT060 BKN100 FM062100 25012G20KT P6SM -SHRA SCT040 BKN080 FM070300 VRB05KT P6SM -SHRA SCT040 BKN080
NOTAMs
Click for the latest NOTAMs
NOTAMs are issued by the DoD/FAA and will open in a separate window not controlled by AirNav.

 

 
 

Would you like to see your business listed on this page?

 If your business provides an interesting product or service to pilots, flight crews, aircraft, or users of the Park City Regional Medical Center Heliport, you should consider listing it here.  To start the listing process, click on the button below
 
Add a business
 

Other Pages about Park City Regional Medical Center Heliport

Update a link
 
Copyright © AirNav, LLC. All rights reserved. Privacy Policy  Contact